| time (UTC) | temp C | wind direction | speed KPH | gust KPH | rain 1hr cm | rain 24hr cm | rain mn cm | humidity % | barometer mb |
| 20260903231327 | 28 | 107 | 1.6 | 3.2 | 0.00 | 0.10 | 0.10 | 71 | 1011.4 |
| 20260903230823 | 28 | 115 | 4.8 | 8.0 | 0.00 | 0.10 | 0.10 | 71 | 1011.3 |
| 20260903230318 | 28 | 92 | 4.8 | 8.0 | 0.00 | 0.10 | 0.10 | 71 | 1011.3 |
| 20260903225814 | 28 | 72 | 9.7 | 16.1 | 0.00 | 0.10 | 0.10 | 71 | 1011.4 |
| 20260903225310 | 28 | 57 | 3.2 | 11.3 | 0.00 | 0.10 | 0.10 | 70 | 1011.5 |
| 20260903224806 | 28 | 97 | 6.4 | 9.7 | 0.00 | 0.10 | 0.10 | 70 | 1011.3 |
| 20260903224302 | 28 | 72 | 0.0 | 16.1 | 0.00 | 0.10 | 0.10 | 70 | 1011.4 |
| 20260903223757 | 28 | 154 | 6.4 | 12.9 | 0.00 | 0.10 | 0.10 | 69 | 1011.5 |
| 20260903223256 | 28 | 33 | 3.2 | 20.9 | 0.00 | 0.10 | 0.10 | 69 | 1011.6 |
| 20260903222751 | 28 | 135 | 0.0 | 3.2 | 0.00 | 0.10 | 0.10 | 69 | 1011.5 |
| 20260903222250 | 28 | 83 | 1.6 | 9.7 | 0.00 | 0.10 | 0.10 | 69 | 1011.3 |
| 20260903221745 | 28 | 146 | 3.2 | 4.8 | 0.00 | 0.10 | 0.10 | 69 | 1011.6 |
| 20260903221243 | 28 | 182 | 3.2 | 17.7 | 0.00 | 0.10 | 0.10 | 68 | 1011.2 |
| 20260903220742 | 28 | 222 | 1.6 | 4.8 | 0.00 | 0.10 | 0.10 | 69 | 1011.4 |
| 20260903220237 | 28 | 190 | 12.9 | 22.5 | 0.00 | 0.10 | 0.10 | 69 | 1011.4 |
| 20260903215730 | 28 | 120 | 4.8 | 8.0 | 0.00 | 0.10 | 0.10 | 69 | 1011.6 |
| 20260903215226 | 28 | 182 | 4.8 | 11.3 | 0.00 | 0.10 | 0.10 | 71 | 1011.6 |
| 20260903214724 | 28 | 119 | 1.6 | 9.7 | 0.00 | 0.10 | 0.10 | 72 | 1011.6 |
| 20260903214221 | 28 | 98 | 3.2 | 8.0 | 0.00 | 0.10 | 0.10 | 72 | 1011.7 |
| 20260903213714 | 28 | 117 | 1.6 | 3.2 | 0.00 | 0.10 | 0.10 | 72 | 1011.7 |
| 20260903213211 | 28 | 80 | 4.8 | 14.5 | 0.00 | 0.10 | 0.10 | 72 | 1011.8 |
| 20260903212706 | 28 | 149 | 4.8 | 12.9 | 0.00 | 0.10 | 0.10 | 72 | 1011.7 |
| 20260903212202 | 28 | 161 | 1.6 | 20.9 | 0.00 | 0.10 | 0.10 | 72 | 1011.3 |
| 20260903211655 | 28 | 97 | 0.0 | 20.9 | 0.00 | 0.10 | 0.10 | 72 | 1012.0 |
| 20260903211153 | 28 | 113 | 6.4 | 9.7 | 0.00 | 0.10 | 0.10 | 70 | 1012.4 |
| 20260903210648 | 28 | 123 | 1.6 | 9.7 | 0.00 | 0.10 | 0.10 | 72 | 1012.6 |
| 20260903210143 | 28 | 126 | 1.6 | 11.3 | 0.00 | 0.10 | 0.10 | 73 | 1012.6 |
| 20260903205643 | 28 | 101 | 1.6 | 12.9 | 0.00 | 0.10 | 0.10 | 72 | 1012.6 |
| 20260903205136 | 28 | 109 | 4.8 | 8.0 | 0.00 | 0.10 | 0.10 | 71 | 1012.4 |
| 20260903204632 | 29 | 103 | 1.6 | 4.8 | 0.00 | 0.10 | 0.10 | 70 | 1012.1 |
| 20260903204128 | 29 | 144 | 1.6 | 4.8 | 0.00 | 0.10 | 0.10 | 69 | 1012.5 |
| 20260903203623 | 29 | 156 | 1.6 | 9.7 | 0.00 | 0.10 | 0.10 | 71 | 1012.4 |
| 20260903203118 | 28 | 129 | 6.4 | 12.9 | 0.00 | 0.10 | 0.10 | 72 | 1012.2 |
| 20260903202613 | 28 | 199 | 1.6 | 14.5 | 0.00 | 0.10 | 0.10 | 73 | 1012.3 |
| 20260903202109 | 28 | 102 | 1.6 | 12.9 | 0.00 | 0.10 | 0.10 | 73 | 1012.4 |
| 20260903201603 | 28 | 158 | 6.4 | 9.7 | 0.00 | 0.10 | 0.10 | 73 | 1012.6 |
| 20260903201102 | 28 | 151 | 4.8 | 17.7 | 0.00 | 0.10 | 0.10 | 73 | 1012.2 |
| 20260903200552 | 28 | 81 | 6.4 | 11.3 | 0.00 | 0.10 | 0.10 | 73 | 1012.3 |
| 20260903200047 | 28 | 153 | 3.2 | 8.0 | 0.00 | 0.10 | 0.10 | 73 | 1012.5 |
| 20260903195543 | 28 | 97 | 4.8 | 8.0 | 0.00 | 0.10 | 0.10 | 75 | 1012.5 |
| 20260903195038 | 27 | 180 | 8.0 | 11.3 | 0.00 | 0.10 | 0.10 | 76 | 1012.5 |
| 20260903194533 | 27 | 192 | 6.4 | 8.0 | 0.00 | 0.10 | 0.10 | 79 | 1012.7 |
| 20260903194028 | 26 | 100 | 4.8 | 12.9 | 0.00 | 0.10 | 0.10 | 82 | 1012.8 |
| 20260903193525 | 25 | 111 | 3.2 | 9.7 | 0.00 | 0.10 | 0.10 | 84 | 1012.6 |
| 20260903193019 | 25 | 85 | 0.0 | 3.2 | 0.00 | 0.10 | 0.10 | 86 | 1012.8 |
| 20260903192517 | 24 | 121 | 4.8 | 8.0 | 0.00 | 0.10 | 0.10 | 88 | 1012.8 |
| 20260903192016 | 24 | 116 | 0.0 | 3.2 | 0.00 | 0.10 | 0.10 | 89 | 1013.2 |
| 20260903191513 | 24 | 61 | 0.0 | 1.6 | 0.18 | 0.10 | 0.10 | 89 | 1013.5 |
| 20260903191007 | 24 | 152 | 0.0 | 4.8 | 0.48 | 0.10 | 0.10 | 87 | 1013.7 |
| 20260903190507 | 25 | 149 | 0.0 | 1.6 | 0.30 | 0.08 | 0.08 | 87 | 1013.5 |
| 20260903190001 | 25 | 131 | 0.0 | 4.8 | 0.00 | 0.03 | 0.03 | 86 | 1013.3 |
| 20260903185456 | 25 | 15 | 4.8 | 8.0 | 0.00 | 0.03 | 0.03 | 88 | 1013.1 |
| 20260903184950 | 25 | 156 | 0.0 | 3.2 | 0.00 | 0.03 | 0.03 | 88 | 1013.2 |
| 20260903184447 | 25 | 139 | 0.0 | 1.6 | 0.13 | 0.03 | 0.03 | 88 | 1013.3 |
| 20260903183942 | 25 | 140 | 0.0 | 0.0 | 0.00 | 0.00 | 0.00 | 85 | 1013.6 |
| 20260903183436 | 25 | 168 | 1.6 | 3.2 | 0.00 | 0.00 | 0.00 | 82 | 1013.6 |
| 20260903182936 | 25 | 21 | 1.6 | 1.6 | 0.00 | 0.00 | 0.00 | 81 | 1013.6 |
| 20260903182434 | 25 | 95 | 1.6 | 4.8 | 0.00 | 0.00 | 0.00 | 80 | 1013.3 |
| 20260903181930 | 25 | 128 | 1.6 | 3.2 | 0.00 | 0.00 | 0.00 | 79 | 1013.6 |
| 20260903181425 | 25 | 124 | 0.0 | 0.0 | 0.00 | 0.00 | 0.00 | 79 | 1013.4 |
| 20260903180924 | 25 | 103 | 1.6 | 1.6 | 0.00 | 0.00 | 0.00 | 78 | 1013.4 |
| 20260903180419 | 25 | 324 | 1.6 | 1.6 | 0.00 | 0.00 | 0.00 | 78 | 1013.0 |
| 20260903175919 | 25 | 156 | 0.0 | 3.2 | 0.00 | 0.00 | 0.00 | 79 | 1013.2 |
| 20260903175413 | 25 | 131 | 0.0 | 3.2 | 0.00 | 0.00 | 0.00 | 79 | 1013.4 |
| 20260903174908 | 25 | 52 | 0.0 | 11.3 | 0.00 | 0.00 | 0.00 | 79 | 1013.2 |
| 20260903174403 | 26 | 105 | 1.6 | 3.2 | 0.00 | 0.00 | 0.00 | 78 | 1013.1 |
| 20260903173903 | 26 | 132 | 0.0 | 1.6 | 0.00 | 0.00 | 0.00 | 78 | 1013.5 |
| 20260903173357 | 26 | 76 | 3.2 | 4.8 | 0.00 | 0.00 | 0.00 | 78 | 1013.5 |
| 20260903172853 | 25 | 81 | 3.2 | 8.0 | 0.00 | 0.00 | 0.00 | 81 | 1013.8 |
| 20260903172348 | 25 | 121 | 4.8 | 14.5 | 0.00 | 0.00 | 0.00 | 81 | 1014.0 |
| 20260903171843 | 25 | 117 | 4.8 | 16.1 | 0.00 | 0.00 | 0.00 | 80 | 1014.1 |
| 20260903171339 | 25 | 115 | 3.2 | 8.0 | 0.00 | 0.00 | 0.00 | 79 | 1014.1 |
| 20260903170838 | 25 | 90 | 0.0 | 8.0 | 0.00 | 0.00 | 0.00 | 79 | 1014.1 |
| 20260903170333 | 26 | 77 | 4.8 | 8.0 | 0.00 | 0.00 | 0.00 | 77 | 1014.0 |
| 20260903165831 | 26 | 93 | 1.6 | 1.6 | 0.00 | 0.00 | 0.00 | 75 | 1013.9 |
| 20260903165331 | 26 | 108 | 1.6 | 8.0 | 0.00 | 0.00 | 0.00 | 74 | 1014.0 |
| 20260903164826 | 26 | 106 | 1.6 | 4.8 | 0.00 | 0.00 | 0.00 | 73 | 1014.0 |
| 20260903164321 | 26 | 127 | 0.0 | 8.0 | 0.00 | 0.00 | 0.00 | 72 | 1013.9 |
| 20260903163820 | 27 | 131 | 3.2 | 8.0 | 0.00 | 0.00 | 0.00 | 69 | 1014.1 |
| 20260903163317 | 26 | 124 | 0.0 | 4.8 | 0.00 | 0.00 | 0.00 | 71 | 1014.0 |
| 20260903162813 | 26 | 125 | 1.6 | 9.7 | 0.00 | 0.00 | 0.00 | 73 | 1013.9 |
| 20260903162309 | 26 | 141 | 3.2 | 8.0 | 0.00 | 0.00 | 0.00 | 73 | 1013.7 |
| 20260903161805 | 26 | 107 | 0.0 | 4.8 | 0.00 | 0.00 | 0.00 | 75 | 1013.8 |
| 20260903161300 | 26 | 126 | 4.8 | 8.0 | 0.00 | 0.00 | 0.00 | 75 | 1013.9 |
| 20260903160755 | 26 | 14 | 9.7 | 14.5 | 0.00 | 0.00 | 0.00 | 74 | 1013.6 |
| 20260903160255 | 25 | 174 | 1.6 | 3.2 | 0.00 | 0.00 | 0.00 | 77 | 1013.6 |
| 20260903155753 | 25 | 99 | 4.8 | 11.3 | 0.00 | 0.00 | 0.00 | 78 | 1013.4 |
| 20260903155248 | 25 | 122 | 1.6 | 14.5 | 0.00 | 0.00 | 0.00 | 79 | 1013.5 |
| 20260903154744 | 25 | 152 | 1.6 | 9.7 | 0.00 | 0.00 | 0.00 | 80 | 1013.9 |
| 20260903154240 | 24 | 178 | 1.6 | 3.2 | 0.00 | 0.00 | 0.00 | 80 | 1014.2 |
| 20260903153735 | 24 | 135 | 6.4 | 8.0 | 0.00 | 0.00 | 0.00 | 80 | 1014.4 |
| 20260903153231 | 24 | 116 | 4.8 | 4.8 | 0.00 | 0.00 | 0.00 | 80 | 1014.0 |
| 20260903152727 | 25 | 121 | 3.2 | 4.8 | 0.00 | 0.00 | 0.00 | 79 | 1014.0 |
| 20260903152223 | 25 | 25 | 4.8 | 11.3 | 0.00 | 0.00 | 0.00 | 79 | 1013.9 |
| 20260903151722 | 25 | 73 | 1.6 | 4.8 | 0.00 | 0.00 | 0.00 | 79 | 1013.7 |
| 20260903151218 | 25 | 122 | 1.6 | 8.0 | 0.00 | 0.00 | 0.00 | 78 | 1013.9 |
| 20260903150713 | 25 | 112 | 0.0 | 4.8 | 0.00 | 0.00 | 0.00 | 79 | 1013.9 |
| 20260903150208 | 25 | 149 | 0.0 | 8.0 | 0.00 | 0.00 | 0.00 | 80 | 1014.0 |
| 20260903145708 | 25 | 98 | 1.6 | 4.8 | 0.00 | 0.00 | 0.00 | 80 | 1013.9 |
| 20260903145203 | 25 | 117 | 4.8 | 4.8 | 0.00 | 0.00 | 0.00 | 80 | 1013.8 |
| 20260903144702 | 25 | 87 | 4.8 | 8.0 | 0.00 | 0.00 | 0.00 | 79 | 1013.9 |
| 20260903144157 | 24 | 152 | 0.0 | 1.6 | 0.00 | 0.00 | 0.00 | 81 | 1013.8 |
| 20260903143653 | 24 | 109 | 0.0 | 1.6 | 0.00 | 0.00 | 0.00 | 80 | 1013.9 |
| 20260903143149 | 25 | 95 | 1.6 | 1.6 | 0.00 | 0.00 | 0.00 | 80 | 1013.8 |
| 20260903142645 | 25 | 138 | 4.8 | 8.0 | 0.00 | 0.00 | 0.00 | 79 | 1013.8 |
| 20260903142141 | 25 | 98 | 0.0 | 4.8 | 0.00 | 0.00 | 0.00 | 79 | 1013.7 |
| 20260903141636 | 25 | 75 | 0.0 | 1.6 | 0.00 | 0.00 | 0.00 | 79 | 1013.8 |
| 20260903141131 | 25 | 100 | 1.6 | 3.2 | 0.00 | 0.00 | 0.00 | 79 | 1013.8 |
| 20260903140627 | 24 | 82 | 0.0 | 8.0 | 0.00 | 0.00 | 0.00 | 81 | 1013.7 |
| 20260903140122 | 24 | 117 | 8.0 | 11.3 | 0.00 | 0.00 | 0.00 | 81 | 1014.0 |
| 20260903135619 | 23 | 89 | 3.2 | 8.0 | 0.00 | 0.00 | 0.00 | 82 | 1013.9 |
| 20260903135118 | 23 | 97 | 1.6 | 8.0 | 0.00 | 0.00 | 0.00 | 84 | 1013.8 |
| 20260903134617 | 23 | 106 | 3.2 | 4.8 | 0.00 | 0.00 | 0.00 | 83 | 1013.6 |
| 20260903134113 | 23 | 63 | 1.6 | 1.6 | 0.00 | 0.00 | 0.00 | 84 | 1014.0 |
| 20260903133611 | 23 | 131 | 0.0 | 1.6 | 0.00 | 0.00 | 0.00 | 85 | 1014.1 |
| 20260903133107 | 22 | 117 | 0.0 | 3.2 | 0.00 | 0.00 | 0.00 | 86 | 1014.0 |
| 20260903132602 | 22 | 95 | 1.6 | 4.8 | 0.00 | 0.00 | 0.00 | 87 | 1014.0 |
| 20260903132102 | 22 | 148 | 0.0 | 1.6 | 0.00 | 0.00 | 0.00 | 87 | 1013.9 |
| 20260903131556 | 22 | 176 | 3.2 | 4.8 | 0.00 | 0.00 | 0.00 | 87 | 1013.9 |
| 20260903131055 | 22 | 114 | 0.0 | 11.3 | 0.00 | 0.00 | 0.00 | 87 | 1013.7 |
| 20260903130550 | 22 | 336 | 1.6 | 4.8 | 0.00 | 0.00 | 0.00 | 87 | 1014.0 |
| 20260903130045 | 22 | 193 | 1.6 | 1.6 | 0.00 | 0.00 | 0.00 | 87 | 1013.9 |
| 20260903125543 | 22 | 109 | 0.0 | 8.0 | 0.00 | 0.00 | 0.00 | 87 | 1013.9 |
| 20260903125039 | 22 | 76 | 4.8 | 8.0 | 0.00 | 0.00 | 0.00 | 87 | 1014.0 |
| 20260903124538 | 22 | 155 | 1.6 | 3.2 | 0.00 | 0.00 | 0.00 | 87 | 1013.7 |
| 20260903124033 | 22 | 107 | 1.6 | 4.8 | 0.00 | 0.00 | 0.00 | 87 | 1013.8 |
| 20260903123532 | 22 | 133 | 0.0 | 9.7 | 0.00 | 0.00 | 0.00 | 87 | 1013.5 |
| 20260903123031 | 22 | 123 | 1.6 | 8.0 | 0.00 | 0.00 | 0.00 | 87 | 1013.7 |
| 20260903122530 | 22 | 114 | 0.0 | 4.8 | 0.00 | 0.00 | 0.00 | 88 | 1013.6 |
| 20260903122025 | 22 | 187 | 6.4 | 11.3 | 0.00 | 0.00 | 0.00 | 88 | 1013.8 |
| 20260903121520 | 22 | 187 | 4.8 | 9.7 | 0.00 | 0.00 | 0.00 | 90 | 1014.0 |
| 20260903121016 | 22 | 111 | 3.2 | 12.9 | 0.00 | 0.00 | 0.00 | 89 | 1014.5 |
| 20260903120514 | 23 | 158 | 4.8 | 14.5 | 0.00 | 0.00 | 0.00 | 87 | 1014.2 |
| 20260903120009 | 23 | 196 | 8.0 | 11.3 | 0.00 | 0.00 | 0.00 | 89 | 1014.0 |
| 20260903115507 | 23 | 132 | 3.2 | 9.7 | 0.00 | 0.00 | 0.00 | 89 | 1014.2 |
| 20260903115002 | 23 | 109 | 4.8 | 9.7 | 0.00 | 0.00 | 0.00 | 89 | 1013.9 |
| 20260903114457 | 22 | 155 | 6.4 | 9.7 | 0.00 | 0.00 | 0.00 | 90 | 1014.0 |
| 20260903113953 | 22 | 135 | 3.2 | 4.8 | 0.00 | 0.00 | 0.00 | 92 | 1013.6 |
| 20260903113448 | 22 | 235 | 3.2 | 4.8 | 0.00 | 0.00 | 0.00 | 93 | 1013.8 |
| 20260903112944 | 22 | 135 | 0.0 | 1.6 | 0.00 | 0.00 | 0.00 | 94 | 1013.8 |
| 20260903112440 | 22 | 139 | 0.0 | 3.2 | 0.00 | 0.00 | 0.00 | 95 | 1013.8 |
| 20260903111939 | 22 | 116 | 0.0 | 4.8 | 0.00 | 0.00 | 0.00 | 96 | 1013.8 |
| 20260903111433 | 21 | 127 | 0.0 | 1.6 | 0.00 | 0.00 | 0.00 | 96 | 1013.5 |
| 20260903110929 | 21 | 97 | 1.6 | 8.0 | 0.00 | 0.00 | 0.00 | 96 | 1013.8 |
| 20260903110425 | 21 | 99 | 0.0 | 0.0 | 0.00 | 0.00 | 0.00 | 96 | 1013.6 |
| 20260903105919 | 21 | 289 | 0.0 | 1.6 | 0.00 | 0.00 | 0.00 | 96 | 1014.0 |
| 20260903105415 | 21 | 128 | 0.0 | 0.0 | 0.00 | 0.00 | 0.00 | 96 | 1014.0 |
| 20260903104914 | 21 | 94 | 1.6 | 3.2 | 0.00 | 0.00 | 0.00 | 96 | 1014.3 |
| 20260903104408 | 21 | 11 | 1.6 | 3.2 | 0.00 | 0.00 | 0.00 | 95 | 1014.1 |
| 20260903103906 | 21 | 109 | 0.0 | 3.2 | 0.00 | 0.00 | 0.00 | 95 | 1014.1 |
| 20260903103401 | 21 | 103 | 0.0 | 4.8 | 0.00 | 0.00 | 0.00 | 95 | 1014.1 |
| 20260903102856 | 21 | 102 | 0.0 | 1.6 | 0.00 | 0.00 | 0.00 | 95 | 1013.8 |
| 20260903102351 | 21 | 92 | 0.0 | 1.6 | 0.00 | 0.00 | 0.00 | 95 | 1014.0 |
| 20260903101851 | 21 | 357 | 1.6 | 1.6 | 0.00 | 0.00 | 0.00 | 95 | 1013.9 |
| 20260903101346 | 21 | 95 | 0.0 | 3.2 | 0.00 | 0.00 | 0.00 | 95 | 1013.7 |
| 20260903100841 | 21 | 56 | 0.0 | 1.6 | 0.00 | 0.00 | 0.00 | 95 | 1013.7 |
| 20260903100341 | 21 | 79 | 1.6 | 1.6 | 0.00 | 0.00 | 0.00 | 95 | 1013.7 |
| 20260903095833 | 21 | 100 | 0.0 | 8.0 | 0.00 | 0.00 | 0.00 | 95 | 1013.5 |
| 20260903095332 | 21 | 102 | 0.0 | 4.8 | 0.00 | 0.00 | 0.00 | 95 | 1013.6 |
| 20260903094828 | 21 | 83 | 0.0 | 1.6 | 0.00 | 0.00 | 0.00 | 95 | 1013.6 |
| 20260903094322 | 21 | 95 | 0.0 | 0.0 | 0.00 | 0.00 | 0.00 | 94 | 1013.6 |
| 20260903093819 | 21 | 99 | 0.0 | 1.6 | 0.00 | 0.00 | 0.00 | 94 | 1013.8 |
| 20260903093313 | 21 | 354 | 1.6 | 1.6 | 0.00 | 0.00 | 0.00 | 94 | 1013.7 |
| 20260903092808 | 21 | 73 | 1.6 | 3.2 | 0.00 | 0.00 | 0.00 | 94 | 1013.5 |
| 20260903092306 | 21 | 62 | 0.0 | 1.6 | 0.00 | 0.00 | 0.00 | 94 | 1013.5 |
| 20260903091802 | 21 | 53 | 0.0 | 0.0 | 0.00 | 0.00 | 0.00 | 94 | 1013.4 |
| 20260903091255 | 22 | 72 | 0.0 | 1.6 | 0.00 | 0.00 | 0.00 | 94 | 1013.4 |
| 20260903090752 | 22 | 82 | 0.0 | 3.2 | 0.00 | 0.00 | 0.00 | 94 | 1013.5 |
| 20260903090251 | 22 | 103 | 0.0 | 1.6 | 0.00 | 0.00 | 0.00 | 93 | 1013.4 |
| 20260903085750 | 22 | 93 | 0.0 | 1.6 | 0.00 | 0.00 | 0.00 | 93 | 1013.3 |
| 20260903085249 | 22 | 306 | 3.2 | 3.2 | 0.00 | 0.00 | 0.00 | 93 | 1013.6 |
| 20260903084748 | 22 | 21 | 0.0 | 3.2 | 0.00 | 0.00 | 0.00 | 93 | 1013.5 |
| 20260903084237 | 22 | 36 | 1.6 | 3.2 | 0.00 | 0.00 | 0.00 | 93 | 1013.4 |
| 20260903083733 | 22 | 23 | 0.0 | 3.2 | 0.00 | 0.00 | 0.00 | 93 | 1013.4 |
| 20260903083227 | 22 | 96 | 0.0 | 1.6 | 0.00 | 0.00 | 0.00 | 93 | 1013.4 |
| 20260903082726 | 22 | 52 | 3.2 | 3.2 | 0.00 | 0.00 | 0.00 | 92 | 1013.6 |
| 20260903082223 | 22 | 348 | 1.6 | 1.6 | 0.00 | 0.00 | 0.00 | 92 | 1013.5 |
| 20260903081722 | 22 | 16 | 0.0 | 1.6 | 0.00 | 0.00 | 0.00 | 92 | 1013.5 |
| 20260903081218 | 22 | 75 | 0.0 | 3.2 | 0.00 | 0.00 | 0.00 | 92 | 1013.4 |
| 20260903080714 | 22 | 80 | 0.0 | 1.6 | 0.00 | 0.00 | 0.00 | 91 | 1013.4 |
| 20260903080212 | 22 | 91 | 0.0 | 1.6 | 0.00 | 0.00 | 0.00 | 91 | 1013.5 |
| 20260903075710 | 22 | 100 | 0.0 | 1.6 | 0.00 | 0.00 | 0.00 | 91 | 1013.8 |
| 20260903075206 | 22 | 76 | 0.0 | 1.6 | 0.00 | 0.00 | 0.00 | 91 | 1013.6 |
| 20260903074704 | 22 | 107 | 1.6 | 3.2 | 0.00 | 0.00 | 0.00 | 91 | 1013.7 |
| 20260903074200 | 22 | 122 | 0.0 | 0.0 | 0.00 | 0.00 | 0.00 | 90 | 1013.8 |
| 20260903073655 | 22 | 39 | 0.0 | 3.2 | 0.00 | 0.00 | 0.00 | 90 | 1013.7 |
| 20260903073150 | 22 | 10 | 1.6 | 1.6 | 0.00 | 0.00 | 0.00 | 90 | 1013.9 |
| 20260903072646 | 22 | 118 | 0.0 | 1.6 | 0.00 | 0.00 | 0.00 | 90 | 1013.9 |
| 20260903072143 | 22 | 107 | 0.0 | 4.8 | 0.00 | 0.00 | 0.00 | 90 | 1013.9 |
| 20260903071639 | 22 | 314 | 3.2 | 3.2 | 0.00 | 0.00 | 0.00 | 90 | 1014.1 |
| 20260903071134 | 22 | 116 | 0.0 | 0.0 | 0.00 | 0.00 | 0.00 | 90 | 1014.0 |
| 20260903070634 | 22 | 94 | 0.0 | 3.2 | 0.00 | 0.00 | 0.00 | 89 | 1014.0 |
| 20260903070130 | 22 | 325 | 1.6 | 3.2 | 0.00 | 0.00 | 0.00 | 89 | 1014.2 |
| 20260903065629 | 22 | 93 | 0.0 | 1.6 | 0.00 | 0.00 | 0.00 | 89 | 1014.2 |
| 20260903065124 | 22 | 305 | 0.0 | 1.6 | 0.00 | 0.00 | 0.00 | 89 | 1014.2 |
| 20260903064618 | 22 | 105 | 0.0 | 1.6 | 0.00 | 0.00 | 0.00 | 89 | 1014.0 |
| 20260903064114 | 22 | 5 | 3.2 | 3.2 | 0.00 | 0.00 | 0.00 | 89 | 1014.2 |
| 20260903063609 | 22 | 11 | 1.6 | 3.2 | 0.00 | 0.00 | 0.00 | 89 | 1014.0 |
| 20260903063104 | 22 | 89 | 1.6 | 1.6 | 0.00 | 0.00 | 0.00 | 89 | 1014.3 |
| 20260903062559 | 22 | 74 | 0.0 | 0.0 | 0.00 | 0.00 | 0.00 | 88 | 1014.1 |
| 20260903062054 | 23 | 106 | 0.0 | 1.6 | 0.00 | 0.00 | 0.00 | 88 | 1014.1 |
| 20260903061550 | 23 | 102 | 0.0 | 0.0 | 0.00 | 0.00 | 0.00 | 88 | 1014.3 |
| 20260903061049 | 23 | 92 | 0.0 | 1.6 | 0.00 | 0.00 | 0.00 | 87 | 1014.4 |
| 20260903060549 | 23 | 101 | 0.0 | 0.0 | 0.00 | 0.00 | 0.00 | 87 | 1014.2 |
| 20260903060044 | 23 | 92 | 0.0 | 1.6 | 0.00 | 0.00 | 0.00 | 87 | 1014.3 |
| 20260903055541 | 23 | 104 | 0.0 | 0.0 | 0.00 | 0.00 | 0.00 | 87 | 1014.3 |
| 20260903055040 | 23 | 38 | 0.0 | 1.6 | 0.00 | 0.00 | 0.00 | 87 | 1014.2 |
| 20260903054536 | 23 | 106 | 0.0 | 1.6 | 0.00 | 0.00 | 0.00 | 86 | 1014.1 |
| 20260903054031 | 23 | 76 | 0.0 | 1.6 | 0.00 | 0.00 | 0.00 | 86 | 1014.0 |
| 20260903053526 | 23 | 104 | 0.0 | 0.0 | 0.00 | 0.00 | 0.00 | 86 | 1014.3 |
| 20260903053023 | 23 | 66 | 1.6 | 4.8 | 0.00 | 0.00 | 0.00 | 86 | 1014.1 |
| 20260903052518 | 23 | 51 | 1.6 | 1.6 | 0.00 | 0.00 | 0.00 | 85 | 1014.1 |
| 20260903052014 | 23 | 87 | 0.0 | 1.6 | 0.00 | 0.00 | 0.00 | 85 | 1014.1 |
| 20260903051508 | 23 | 273 | 1.6 | 1.6 | 0.00 | 0.00 | 0.00 | 85 | 1014.4 |
| 20260903051004 | 23 | 43 | 1.6 | 3.2 | 0.00 | 0.00 | 0.00 | 84 | 1014.2 |
| 20260903050503 | 24 | 114 | 0.0 | 3.2 | 0.00 | 0.00 | 0.00 | 84 | 1014.3 |
| 20260903045957 | 24 | 39 | 1.6 | 3.2 | 0.00 | 0.15 | 0.15 | 84 | 1014.4 |
| 20260903045453 | 24 | 51 | 0.0 | 1.6 | 0.00 | 0.15 | 0.15 | 84 | 1014.4 |
| 20260903044949 | 24 | 68 | 0.0 | 1.6 | 0.00 | 0.15 | 0.15 | 83 | 1014.6 |
| 20260903044445 | 24 | 347 | 1.6 | 3.2 | 0.00 | 0.15 | 0.15 | 83 | 1014.4 |
| 20260903043941 | 24 | 49 | 1.6 | 3.2 | 0.00 | 0.15 | 0.15 | 83 | 1014.4 |
| 20260903043437 | 24 | 115 | 0.0 | 1.6 | 0.00 | 0.15 | 0.15 | 83 | 1014.5 |
| 20260903042935 | 24 | 108 | 0.0 | 1.6 | 0.00 | 0.15 | 0.15 | 83 | 1014.4 |
| 20260903042430 | 24 | 116 | 0.0 | 1.6 | 0.00 | 0.15 | 0.15 | 83 | 1014.4 |
| 20260903041926 | 24 | 345 | 1.6 | 3.2 | 0.00 | 0.15 | 0.15 | 83 | 1014.4 |
| 20260903041422 | 24 | 101 | 0.0 | 3.2 | 0.00 | 0.15 | 0.15 | 83 | 1014.4 |
| 20260903040918 | 25 | 110 | 0.0 | 1.6 | 0.00 | 0.15 | 0.15 | 82 | 1014.4 |
| 20260903040416 | 25 | 136 | 1.6 | 1.6 | 0.00 | 0.15 | 0.15 | 82 | 1014.5 |
| 20260903035913 | 25 | 65 | 0.0 | 3.2 | 0.00 | 0.15 | 0.15 | 81 | 1014.5 |
| 20260903035408 | 25 | 222 | 1.6 | 4.8 | 0.00 | 0.15 | 0.15 | 81 | 1014.7 |
| 20260903034903 | 25 | 122 | 0.0 | 3.2 | 0.00 | 0.15 | 0.15 | 81 | 1014.7 |
| 20260903034358 | 25 | 113 | 0.0 | 4.8 | 0.00 | 0.15 | 0.15 | 82 | 1014.7 |
| 20260903033853 | 25 | 3 | 3.2 | 4.8 | 0.00 | 0.15 | 0.15 | 82 | 1014.7 |
| 20260903033348 | 25 | 20 | 1.6 | 3.2 | 0.00 | 0.15 | 0.15 | 82 | 1014.7 |
| 20260903032848 | 25 | 125 | 0.0 | 3.2 | 0.00 | 0.15 | 0.15 | 82 | 1014.8 |
| 20260903032344 | 25 | 111 | 0.0 | 3.2 | 0.00 | 0.15 | 0.15 | 82 | 1014.8 |
| 20260903031839 | 25 | 95 | 0.0 | 3.2 | 0.00 | 0.15 | 0.15 | 82 | 1014.7 |
| 20260903031338 | 25 | 112 | 0.0 | 1.6 | 0.00 | 0.15 | 0.15 | 82 | 1014.7 |
| 20260903030834 | 25 | 80 | 0.0 | 4.8 | 0.00 | 0.15 | 0.15 | 82 | 1014.8 |
| 20260903030330 | 25 | 58 | 1.6 | 1.6 | 0.00 | 0.15 | 0.15 | 82 | 1014.7 |
| 20260903025826 | 25 | 122 | 0.0 | 3.2 | 0.00 | 0.15 | 0.15 | 81 | 1014.9 |
| 20260903025321 | 25 | 148 | 0.0 | 1.6 | 0.00 | 0.15 | 0.15 | 81 | 1014.7 |
| 20260903024821 | 25 | 90 | 1.6 | 3.2 | 0.00 | 0.15 | 0.15 | 80 | 1014.3 |
| 20260903024320 | 25 | 55 | 1.6 | 3.2 | 0.00 | 0.15 | 0.15 | 80 | 1014.6 |
| 20260903023816 | 25 | 15 | 0.0 | 1.6 | 0.00 | 0.15 | 0.15 | 80 | 1014.6 |
| 20260903023311 | 25 | 110 | 0.0 | 1.6 | 0.00 | 0.15 | 0.15 | 78 | 1014.6 |
| 20260903022806 | 25 | 126 | 0.0 | 3.2 | 0.00 | 0.15 | 0.15 | 78 | 1014.4 |
| 20260903022306 | 25 | 159 | 0.0 | 1.6 | 0.00 | 0.15 | 0.15 | 77 | 1014.5 |
| 20260903021759 | 25 | 275 | 0.0 | 1.6 | 0.00 | 0.15 | 0.15 | 77 | 1014.6 |
| 20260903021255 | 26 | 136 | 0.0 | 1.6 | 0.00 | 0.15 | 0.15 | 77 | 1014.6 |
| 20260903020754 | 26 | 257 | 0.0 | 3.2 | 0.00 | 0.15 | 0.15 | 75 | 1014.5 |
| 20260903020249 | 26 | 254 | 1.6 | 1.6 | 0.00 | 0.15 | 0.15 | 75 | 1014.5 |
| 20260903015744 | 25 | 291 | 1.6 | 1.6 | 0.00 | 0.15 | 0.15 | 76 | 1014.5 |
| 20260903015240 | 26 | 302 | 1.6 | 1.6 | 0.00 | 0.15 | 0.15 | 76 | 1014.4 |
| 20260903014735 | 26 | 333 | 1.6 | 1.6 | 0.00 | 0.15 | 0.15 | 77 | 1014.4 |
| 20260903014229 | 26 | 234 | 0.0 | 0.0 | 0.00 | 0.15 | 0.15 | 77 | 1014.2 |
| 20260903013724 | 26 | 152 | 0.0 | 0.0 | 0.00 | 0.15 | 0.15 | 76 | 1013.9 |
| 20260903013223 | 26 | 233 | 0.0 | 0.0 | 0.00 | 0.15 | 0.15 | 76 | 1014.1 |
| 20260903012722 | 26 | 208 | 0.0 | 0.0 | 0.00 | 0.15 | 0.15 | 75 | 1014.1 |
| 20260903012221 | 26 | 209 | 0.0 | 1.6 | 0.00 | 0.15 | 0.15 | 75 | 1014.1 |
| 20260903011716 | 26 | 229 | 0.0 | 0.0 | 0.00 | 0.15 | 0.15 | 74 | 1014.0 |
| 20260903011216 | 26 | 216 | 0.0 | 0.0 | 0.00 | 0.15 | 0.15 | 74 | 1013.9 |
| 20260903010712 | 26 | 215 | 0.0 | 0.0 | 0.00 | 0.15 | 0.15 | 73 | 1014.1 |
| 20260903010211 | 27 | 197 | 0.0 | 0.0 | 0.00 | 0.15 | 0.15 | 73 | 1013.8 |
| 20260903005710 | 27 | 251 | 0.0 | 0.0 | 0.00 | 0.15 | 0.15 | 72 | 1014.0 |
| 20260903005205 | 27 | 212 | 0.0 | 0.0 | 0.00 | 0.15 | 0.15 | 71 | 1013.8 |
| 20260903004701 | 27 | 106 | 0.0 | 0.0 | 0.00 | 0.15 | 0.15 | 71 | 1013.9 |
| 20260903004155 | 27 | 181 | 0.0 | 0.0 | 0.00 | 0.15 | 0.15 | 70 | 1013.9 |
| 20260903003651 | 28 | 209 | 0.0 | 0.0 | 0.00 | 0.15 | 0.15 | 68 | 1014.2 |
| 20260903003147 | 28 | 184 | 0.0 | 0.0 | 0.00 | 0.15 | 0.15 | 67 | 1013.6 |
| 20260903002642 | 29 | 178 | 0.0 | 0.0 | 0.00 | 0.15 | 0.15 | 65 | 1014.0 |
| 20260903002136 | 30 | 198 | 0.0 | 0.0 | 0.00 | 0.15 | 0.15 | 64 | 1013.8 |
| 20260903001631 | 30 | 185 | 0.0 | 0.0 | 0.00 | 0.15 | 0.15 | 62 | 1013.8 |
| 20260903001125 | 30 | 149 | 0.0 | 1.6 | 0.00 | 0.15 | 0.15 | 63 | 1013.7 |
| 20260903000621 | 30 | 165 | 0.0 | 1.6 | 0.00 | 0.15 | 0.15 | 62 | 1013.8 |
| 20260903000120 | 30 | 136 | 1.6 | 1.6 | 0.00 | 0.15 | 0.15 | 61 | 1013.8 |
| 20260902235618 | 30 | 194 | 0.0 | 1.6 | 0.00 | 0.15 | 0.15 | 60 | 1013.7 |
| 20260902235114 | 30 | 175 | 0.0 | 0.0 | 0.00 | 0.15 | 0.15 | 61 | 1013.7 |
| 20260902234608 | 30 | 162 | 0.0 | 1.6 | 0.00 | 0.15 | 0.15 | 60 | 1014.1 |
| 20260902234106 | 30 | 191 | 0.0 | 1.6 | 0.00 | 0.15 | 0.15 | 61 | 1013.9 |
| 20260902233602 | 30 | 161 | 3.2 | 3.2 | 0.00 | 0.15 | 0.15 | 61 | 1014.1 |
| 20260902233056 | 30 | 190 | 3.2 | 4.8 | 0.00 | 0.15 | 0.15 | 61 | 1014.0 |
| 20260902232555 | 30 | 117 | 0.0 | 1.6 | 0.00 | 0.15 | 0.15 | 61 | 1013.8 |
| 20260902232050 | 30 | 125 | 1.6 | 1.6 | 0.00 | 0.15 | 0.15 | 61 | 1014.0 |
| 20260902231544 | 30 | 145 | 1.6 | 3.2 | 0.00 | 0.15 | 0.15 | 61 | 1013.9 |